• Join FlightAware (Why Join?)
  • Login
  • US Flag 
11:06PM EST


 

Airport Tracker/Info


-or-


 

Live Flight TrackerFlight Track Log ✈ SKW5646 ✈ 04-May-2013 ✈ KSFO - KSBA

Flight Track Log - Related Links

Times and Time Zones

All times are in EDT time to prevent confusion due to time zone crossing. See the SKW5646 flight status page for this flight to view local times or setup timezone preferences in your user account.

Time Position Orientation Groundspeed Altitude Reporting Facility
EDT Latitude Longitude Course Direction KTS MPH feet Rate Location/Type
02:41PM 37.6667 -122.3667 152° Southeast 156 180 1,600  Level Northern Cal TRACON
02:42PM 37.7000 -122.3833 338° Northwest 196 226 2,800 1,421 Climbing Northern Cal TRACON
02:43PM 37.6667 -122.4167 218° Southwest 201 231 4,300 1,600 Climbing Northern Cal TRACON
02:44PM 37.6000 -122.4167 180° South 206 237 6,000 1,519 Climbing Northern Cal TRACON
02:45PM 37.3937 -122.4948 202° Southwest  Level FlightAware Approximate
02:45PM 37.5933 -122.4203 203° Southwest 200 230 6,300  Level Oakland Center
02:46PM 37.3070 -122.5454 208° Southwest  Level FlightAware Approximate
02:46PM 37.5464 -122.4517 208° Southwest 199 229 7,900  Level Oakland Center
02:47PM 37.2441 -122.5794 152° Southeast  Level FlightAware Approximate
02:47PM 37.5042 -122.4986 221° Southwest 201 231 9,500  Level Oakland Center
02:48PM 37.4511 -122.5331 207° Southwest 211 243 11,100 1,672 Climbing Oakland Center
02:49PM 37.3789 -122.5150 169° South 219 252 12,900 1,659 Climbing Oakland Center
02:50PM 37.3178 -122.5003 169° South 224 258 14,500 1,415 Climbing Oakland Center
02:51PM 37.2550 -122.4844 169° South 228 262 15,800 1,268 Climbing Oakland Center
02:52PM 37.1892 -122.4686 169° South 241 277 17,100 1,463 Climbing Oakland Center
02:53PM 37.1239 -122.4514 168° South 240 276 18,800 1,328 Climbing Oakland Center
02:54PM 37.0606 -122.4197 158° South 249 287 19,800 1,024 Climbing Oakland Center
02:55PM 36.9986 -122.3722 149° Southeast 260 299 20,900 1,073 Climbing Oakland Center
02:56PM 36.9353 -122.3244 149° Southeast 263 303 22,000 1,033 Climbing Oakland Center
02:57PM 36.8728 -122.2767 149° Southeast 264 304 23,000 488 Climbing Oakland Center
02:58PM 36.7900 -122.2172 150° Southeast 285 328 23,000  Level Oakland Center
02:59PM 36.7211 -122.1611 147° Southeast 294 338 23,000  Level Oakland Center
03:00PM 36.6589 -122.0953 140° Southeast 294 338 23,000  Level Oakland Center
03:01PM 36.5944 -122.0306 141° Southeast 297 342 23,000  Level Oakland Center
03:02PM 36.5289 -121.9675 142° Southeast 299 344 23,000  Level Oakland Center
03:03PM 36.4636 -121.9042 142° Southeast 299 344 23,000  Level Oakland Center
03:04PM 36.3975 -121.8422 143° Southeast 299 344 23,000  Level Oakland Center
03:05PM 36.3219 -121.7703 142° Southeast 299 344 23,000  Level Oakland Center
03:06PM 36.2567 -121.7050 141° Southeast 301 346 23,000  Level Oakland Center
03:07PM 36.1903 -121.6419 143° Southeast 301 346 23,000  Level Oakland Center
03:08PM 36.1228 -121.5781 143° Southeast 303 349 23,000  Level Oakland Center
03:09PM 36.0569 -121.5139 142° Southeast 303 349 23,000  Level Oakland Center
03:10PM 35.9906 -121.4508 142° Southeast 301 346 23,000  Level Oakland Center
03:11PM 35.9247 -121.3892 143° Southeast 298 343 23,000  Level Oakland Center
03:12PM 35.8594 -121.3261 142° Southeast 298 343 23,000  Level Oakland Center
03:13PM 35.7822 -121.2528 142° Southeast 294 338 23,000  Level Oakland Center
03:14PM 35.7181 -121.1919 142° Southeast 291 335 23,000  Level Oakland Center
03:15PM 35.6533 -121.1303 142° Southeast 294 338 23,000  Level Oakland Center
03:16PM 35.5892 -121.0697 142° Southeast 292 336 23,000  Level Oakland Center
03:17PM 35.5258 -121.0097 142° Southeast 290 334 23,000  Level Oakland Center
03:18PM 35.4628 -120.9492 142° Southeast 289 333 23,000  Level Oakland Center
03:19PM 35.3986 -120.8911 144° Southeast 288 331 23,000  Level Oakland Center
03:20PM 35.3472 -120.8431 143° Southeast 289 333 23,000  Level Los Angeles Center
03:21PM 35.2836 -120.7847 143° Southeast 286 329 23,000  Level Los Angeles Center
03:22PM 35.2200 -120.7275 144° Southeast 285 328 23,000  Level Los Angeles Center
03:23PM 35.1578 -120.6667 141° Southeast 285 328 23,000 -145 Level Los Angeles Center
03:24PM 35.0942 -120.6078 143° Southeast 286 329 22,700 -919 Descending Los Angeles Center
03:25PM 35.0117 -120.5331 143° Southeast 305 351 21,100 -1,452 Descending Los Angeles Center
03:26PM 34.9456 -120.4711 142° Southeast 300 345 19,700 -1,790 Descending Los Angeles Center
03:27PM 34.8831 -120.4147 143° Southeast 282 325 17,400 -2,032 Descending Los Angeles Center
03:28PM 34.8214 -120.3561 142° Southeast 280 322 15,500 -1,790 Descending Los Angeles Center
03:29PM 34.7597 -120.3017 144° Southeast 273 314 13,700 -1,790 Descending Los Angeles Center
03:31PM 34.6936 -120.2603 153° Southeast 268 308 11,800 -1,805 Descending Los Angeles Center
03:32PM 34.6289 -120.2181 152° Southeast 264 304 10,000 -2,053 Descending Los Angeles Center
03:32PM 34.5986 -120.2131 172° South 250 288 9,200 -1,935 Descending Los Angeles Center
03:33PM 34.5564 -120.2056 172° South 247 284 8,000 -1,706 Descending Los Angeles Center
03:34PM 34.4908 -120.1961 173° South 238 274 6,100 -1,887 Descending Los Angeles Center
03:35PM 34.4378 -120.1583 150° Southeast 236 272 4,100 -1,935 Descending Los Angeles Center
03:36PM 34.4239 -120.0756 101° East 216 249 2,100 -1,016 Descending Los Angeles Center
03:37PM 34.4228 -120.0189 91° East 189 217 2,000 -97 Descending Los Angeles Center